Tümü
Prairie Creek Airport (Leesville, LA) 57LS Hava Durumu
There is no TAF data available at 57LS or any nearby airports.
There is no METAR data available at 57LS. Showing METAR data for KDRI (26 mi G).
Yakın zamandaki DRI METAR geçmişi (57LS verisi yok)
| Date | Time (CDT) | Flight Rules | Wind Dir. | Speed | Type | Height AGL (ft) | Visibility | Temp (°C) | Temp (°F) | Dew Point (°C) | Dew Point (°F) | Rel. Humid. | Pressure | Density Altitude | Remarks |
|---|---|---|---|---|---|---|---|---|---|---|---|---|---|---|---|
| 05-May | 22:15 | VFR | 170° | 6 kt | 10 miles | 24° | 75° | 23° | 73° | 94% | 29.83 in Hg | 1.371 ft | |||
| 05-May | 21:55 | VFR | 170° | 9 kt | 10 miles | 24° | 75° | 23° | 73° | 94% | 29.82 in Hg | 1.381 ft | |||
| 05-May | 21:35 | VFR | 180° | 10 kt | 10 miles | 24° | 75° | 23° | 73° | 93% | 29.81 in Hg | 1.391 ft | |||
| 05-May | 21:15 | VFR | 170° | 9 kt | 10 miles | 25° | 77° | 23° | 73° | 93% | 29.80 in Hg | 1.521 ft | |||
| 05-May | 20:55 | VFR | 170° | 8 kt | 10 miles | 25° | 77° | 23° | 73° | 92% | 29.79 in Hg | 1.531 ft | |||
| 05-May | 20:35 | VFR | 180° | 8 kt | 10 miles | 25° | 77° | 23° | 73° | 92% | 29.79 in Hg | 1.531 ft | |||
| 05-May | 20:15 | VFR | 180° | 9 kt | 10 miles | 25° | 77° | 23° | 73° | 91% | 29.79 in Hg | 1.531 ft | |||
| 05-May | 19:55 | VFR | 180° | 10 kt | 10 miles | 25° | 77° | 23° | 73° | 90% | 29.78 in Hg | 1.541 ft | |||
| 05-May | 19:35 | VFR | 180° | 10 kt | 10 miles | 25° | 77° | 23° | 73° | 90% | 29.78 in Hg | 1.541 ft | |||
| 05-May | 19:15 | VFR | 180° | 8 kt | 10 miles | 25° | 77° | 23° | 73° | 89% | 29.78 in Hg | 1.541 ft | |||
| 05-May | 18:55 | VFR | 180° | 9 kt | 10 miles | 25° | 77° | 24° | 75° | 89% | 29.78 in Hg | 1.541 ft | |||
| 05-May | 18:35 | VFR | 180° | 9 kt | 10 miles | 26° | 78° | 24° | 75° | 88% | 29.78 in Hg | 1.661 ft | |||
| 05-May | 18:15 | VFR | 170° | 9 kt | 10 miles | 26° | 78° | 23° | 73° | 87% | 29.78 in Hg | 1.661 ft | |||
| 05-May | 17:55 | VFR | 180° | 10 kt | 10 miles | 26° | 78° | 23° | 73° | 86% | 29.79 in Hg | 1.651 ft | |||
| 05-May | 17:35 | VFR | 180° | 10 kt | 10 miles | 26° | 78° | 23° | 73° | 85% | 29.78 in Hg | 1.661 ft | |||
| 05-May | 17:15 | VFR | 180° | 8 kt | 10 miles | 26° | 78° | 23° | 73° | 84% | 29.78 in Hg | 1.661 ft | |||
| 05-May | 16:55 | VFR | 180° | 11 kt | 10 miles | 26° | 78° | 23° | 73° | 83% | 29.78 in Hg | 1.661 ft | |||
| 05-May | 16:35 | VFR | 190° | 12 kt | 10 miles | 26° | 78° | 23° | 73° | 84% | 29.79 in Hg | 1.651 ft | Wind gusting to 17 KT | ||
| 05-May | 16:15 | VFR | 180° | 9 kt | 10 miles | 26° | 78° | 23° | 73° | 85% | 29.80 in Hg | 1.641 ft | |||
| 05-May | 15:55 | VFR | 190° | 9 kt | 10 miles | 26° | 78° | 23° | 73° | 85% | 29.81 in Hg | 1.631 ft | |||
| 05-May | 15:35 | VFR | 190° | 10 kt | 10 miles | 26° | 78° | 23° | 73° | 85% | 29.81 in Hg | 1.631 ft | |||
| 05-May | 15:15 | VFR | 180° | 12 kt | 10 miles | 26° | 78° | 23° | 73° | 82% | 29.82 in Hg | 1.621 ft | |||
| 05-May | 14:55 | VFR | 200° | 9 kt | 10 miles | 26° | 78° | 23° | 73° | 84% | 29.82 in Hg | 1.621 ft | |||
| 05-May | 14:35 | VFR | 210° | 13 kt | 10 miles | 26° | 78° | 23° | 73° | 84% | 29.82 in Hg | 1.621 ft |
Giriş
| Tarayıcınız desteklenmiyor. tarayıcınızı yükseltin |
